| time (UTC) | temp F | wind direction | speed MPH | gust MPH | rain 1hr in | rain 24hr in | rain mn in | humidity % | barometer mb |
| 20260831232012 | 84 | 244 | 0.0 | 2.0 | 0.00 | 0.00 | 0.00 | 29 | 1019.0 |
| 20260831231527 | 84 | 193 | 0.0 | 2.0 | 0.00 | 0.00 | 0.00 | 29 | 1019.0 |
| 20260831231017 | 84 | 192 | 0.0 | 2.0 | 0.00 | 0.00 | 0.00 | 28 | 1019.1 |
| 20260831230515 | 85 | 213 | 0.0 | 2.0 | 0.00 | 0.00 | 0.00 | 28 | 1019.1 |
| 20260831230037 | 85 | 59 | 0.0 | 3.0 | 0.00 | 0.00 | 0.00 | 30 | 1019.2 |
| 20260831225518 | 86 | 194 | 1.0 | 4.0 | 0.00 | 0.00 | 0.00 | 28 | 1019.2 |
| 20260831225016 | 86 | 38 | 0.0 | 4.0 | 0.00 | 0.00 | 0.00 | 28 | 1019.3 |
| 20260831224519 | 85 | 229 | 1.0 | 4.0 | 0.00 | 0.00 | 0.00 | 27 | 1019.3 |
| 20260831224014 | 85 | 360 | 1.0 | 5.0 | 0.00 | 0.00 | 0.00 | 28 | 1019.2 |
| 20260831223514 | 85 | 36 | 3.0 | 5.0 | 0.00 | 0.00 | 0.00 | 28 | 1019.2 |
| 20260831223037 | 85 | 133 | 2.0 | 5.0 | 0.00 | 0.00 | 0.00 | 29 | 1019.2 |
| 20260831222519 | 84 | 42 | 0.0 | 3.0 | 0.00 | 0.00 | 0.00 | 29 | 1019.2 |
| 20260831222016 | 84 | 40 | 1.0 | 3.0 | 0.00 | 0.00 | 0.00 | 31 | 1019.4 |
| 20260831221536 | 84 | 37 | 0.0 | 3.0 | 0.00 | 0.00 | 0.00 | 31 | 1019.4 |
| 20260831221023 | 84 | 17 | 1.0 | 2.0 | 0.00 | 0.00 | 0.00 | 29 | 1019.5 |
| 20260831220513 | 84 | 52 | 0.0 | 2.0 | 0.00 | 0.00 | 0.00 | 30 | 1019.5 |
| 20260831220028 | 84 | 44 | 1.0 | 3.0 | 0.00 | 0.00 | 0.00 | 31 | 1019.5 |
| 20260831215519 | 83 | 35 | 1.0 | 3.0 | 0.00 | 0.00 | 0.00 | 31 | 1019.5 |
| 20260831215024 | 83 | 72 | 1.0 | 5.0 | 0.00 | 0.00 | 0.00 | 30 | 1019.5 |
| 20260831214504 | 84 | 75 | 2.0 | 5.0 | 0.00 | 0.00 | 0.00 | 31 | 1019.6 |
| 20260831214003 | 84 | 53 | 2.0 | 3.0 | 0.00 | 0.00 | 0.00 | 31 | 1019.6 |
| 20260831213508 | 84 | 38 | 1.0 | 3.0 | 0.00 | 0.00 | 0.00 | 31 | 1019.6 |
| 20260831213030 | 84 | 119 | 1.0 | 3.0 | 0.00 | 0.00 | 0.00 | 30 | 1019.8 |
| 20260831212513 | 84 | 53 | 0.0 | 6.0 | 0.00 | 0.00 | 0.00 | 30 | 1019.9 |
| 20260831212016 | 84 | 59 | 1.0 | 6.0 | 0.00 | 0.00 | 0.00 | 31 | 1020.0 |
| 20260831211531 | 83 | 55 | 3.0 | 5.0 | 0.00 | 0.00 | 0.00 | 31 | 1020.1 |
| 20260831211004 | 84 | 40 | 3.0 | 4.0 | 0.00 | 0.00 | 0.00 | 30 | 1020.2 |
| 20260831210504 | 84 | 35 | 2.0 | 4.0 | 0.00 | 0.00 | 0.00 | 30 | 1020.2 |
| 20260831210015 | 84 | 76 | 1.0 | 4.0 | 0.00 | 0.00 | 0.00 | 31 | 1020.3 |
| 20260831205508 | 84 | 92 | 1.0 | 3.0 | 0.00 | 0.00 | 0.00 | 31 | 1020.3 |
| 20260831205010 | 83 | 19 | 1.0 | 4.0 | 0.00 | 0.00 | 0.00 | 31 | 1020.4 |
| 20260831204525 | 83 | 138 | 1.0 | 7.0 | 0.00 | 0.00 | 0.00 | 31 | 1020.5 |
| 20260831204016 | 83 | 144 | 1.0 | 7.0 | 0.00 | 0.00 | 0.00 | 31 | 1020.5 |
| 20260831203515 | 83 | 142 | 1.0 | 5.0 | 0.00 | 0.00 | 0.00 | 32 | 1020.5 |
| 20260831203010 | 83 | 82 | 0.0 | 5.0 | 0.00 | 0.00 | 0.00 | 32 | 1020.6 |
| 20260831202507 | 83 | 130 | 1.0 | 6.0 | 0.00 | 0.01 | 0.00 | 32 | 1020.6 |
| 20260831202007 | 83 | 125 | 0.0 | 6.0 | 0.00 | 0.01 | 0.00 | 31 | 1020.7 |
| 20260831201522 | 83 | 36 | 3.0 | 6.0 | 0.00 | 0.06 | 0.00 | 32 | 1020.8 |
| 20260831201012 | 84 | 79 | 2.0 | 4.0 | 0.00 | 0.06 | 0.00 | 32 | 1020.8 |
| 20260831200514 | 84 | 86 | 2.0 | 5.0 | 0.00 | 0.06 | 0.00 | 30 | 1020.9 |
| 20260831200030 | 84 | 130 | 2.0 | 5.0 | 0.00 | 0.06 | 0.00 | 30 | 1020.9 |
| 20260831195515 | 83 | 73 | 1.0 | 4.0 | 0.00 | 0.06 | 0.00 | 33 | 1020.9 |
| 20260831195004 | 82 | 24 | 0.0 | 4.0 | 0.00 | 0.06 | 0.00 | 37 | 1021.0 |
| 20260831194508 | 82 | 39 | 1.0 | 4.0 | 0.00 | 0.06 | 0.00 | 36 | 1021.0 |
| 20260831194008 | 81 | 331 | 0.0 | 4.0 | 0.00 | 0.06 | 0.00 | 38 | 1021.0 |
| 20260831193510 | 81 | 338 | 1.0 | 4.0 | 0.00 | 0.06 | 0.00 | 37 | 1021.2 |
| 20260831193024 | 81 | 5 | 0.0 | 4.0 | 0.00 | 0.06 | 0.00 | 39 | 1021.2 |
| 20260831192515 | 80 | 24 | 1.0 | 4.0 | 0.00 | 0.06 | 0.00 | 40 | 1021.3 |
| 20260831192021 | 80 | 32 | 1.0 | 4.0 | 0.00 | 0.07 | 0.00 | 39 | 1021.4 |
| 20260831191530 | 79 | 9 | 2.0 | 4.0 | 0.00 | 0.07 | 0.00 | 39 | 1021.5 |
| 20260831191003 | 80 | 57 | 2.0 | 3.0 | 0.00 | 0.07 | 0.00 | 39 | 1021.7 |
| 20260831190506 | 80 | 28 | 1.0 | 5.0 | 0.00 | 0.07 | 0.00 | 40 | 1021.7 |
| 20260831190014 | 80 | 38 | 2.0 | 5.0 | 0.00 | 0.07 | 0.00 | 40 | 1021.8 |
| 20260831185512 | 79 | 107 | 1.0 | 2.0 | 0.00 | 0.07 | 0.00 | 40 | 1021.9 |
| 20260831185012 | 79 | 12 | 1.0 | 5.0 | 0.00 | 0.07 | 0.00 | 41 | 1021.9 |
| 20260831184531 | 78 | 360 | 2.0 | 5.0 | 0.00 | 0.07 | 0.00 | 41 | 1021.9 |
| 20260831184017 | 78 | 32 | 0.0 | 5.0 | 0.00 | 0.07 | 0.00 | 41 | 1021.9 |
| 20260831183517 | 77 | 46 | 2.0 | 5.0 | 0.00 | 0.07 | 0.00 | 41 | 1022.0 |
| 20260831183009 | 77 | 34 | 2.0 | 5.0 | 0.00 | 0.07 | 0.00 | 40 | 1022.0 |
| 20260831182506 | 77 | 28 | 1.0 | 3.0 | 0.00 | 0.07 | 0.00 | 41 | 1022.0 |
| 20260831182012 | 77 | 360 | 1.0 | 3.0 | 0.00 | 0.07 | 0.00 | 41 | 1022.1 |
| 20260831181521 | 76 | 317 | 0.0 | 2.0 | 0.00 | 0.07 | 0.00 | 40 | 1022.1 |
| 20260831181014 | 76 | 352 | 0.0 | 3.0 | 0.00 | 0.07 | 0.00 | 40 | 1022.1 |
| 20260831180515 | 75 | 350 | 0.0 | 3.0 | 0.00 | 0.07 | 0.00 | 43 | 1022.1 |
| 20260831180030 | 75 | 13 | 1.0 | 4.0 | 0.00 | 0.07 | 0.00 | 43 | 1022.1 |
| 20260831175521 | 75 | 346 | 1.0 | 4.0 | 0.00 | 0.07 | 0.00 | 43 | 1022.2 |
| 20260831175007 | 75 | 9 | 0.0 | 2.0 | 0.00 | 0.07 | 0.00 | 44 | 1022.2 |
| 20260831174531 | 74 | 326 | 0.0 | 3.0 | 0.00 | 0.07 | 0.00 | 44 | 1022.2 |
| 20260831174014 | 74 | 34 | 1.0 | 3.0 | 0.00 | 0.07 | 0.00 | 45 | 1022.2 |
| 20260831173515 | 74 | 21 | 1.0 | 3.0 | 0.00 | 0.07 | 0.00 | 45 | 1022.2 |
| 20260831173027 | 74 | 48 | 2.0 | 3.0 | 0.00 | 0.07 | 0.00 | 45 | 1022.2 |
| 20260831172520 | 74 | 94 | 1.0 | 3.0 | 0.00 | 0.07 | 0.00 | 47 | 1022.2 |
| 20260831172016 | 74 | 42 | 1.0 | 4.0 | 0.00 | 0.07 | 0.00 | 45 | 1022.3 |
| 20260831171510 | 74 | 51 | 1.0 | 4.0 | 0.00 | 0.07 | 0.00 | 47 | 1022.2 |
| 20260831171007 | 74 | 48 | 1.0 | 3.0 | 0.00 | 0.07 | 0.00 | 43 | 1022.3 |
| 20260831170508 | 74 | 58 | 1.0 | 4.0 | 0.00 | 0.07 | 0.00 | 44 | 1022.3 |
| 20260831170018 | 73 | 45 | 1.0 | 4.0 | 0.00 | 0.07 | 0.00 | 45 | 1022.3 |
| 20260831165514 | 73 | 38 | 1.0 | 4.0 | 0.00 | 0.07 | 0.00 | 45 | 1022.3 |
| 20260831165017 | 73 | 28 | 0.0 | 4.0 | 0.00 | 0.07 | 0.00 | 46 | 1022.2 |
| 20260831164529 | 73 | 38 | 2.0 | 4.0 | 0.00 | 0.07 | 0.00 | 47 | 1022.3 |
| 20260831164018 | 73 | 22 | 1.0 | 4.0 | 0.00 | 0.07 | 0.00 | 46 | 1022.3 |
| 20260831163504 | 73 | 34 | 3.0 | 4.0 | 0.00 | 0.07 | 0.00 | 45 | 1022.3 |
| 20260831163012 | 73 | 21 | 0.0 | 4.0 | 0.00 | 0.07 | 0.00 | 45 | 1022.2 |
| 20260831162509 | 73 | 22 | 1.0 | 5.0 | 0.00 | 0.07 | 0.00 | 45 | 1022.2 |
| 20260831162012 | 73 | 47 | 3.0 | 5.0 | 0.00 | 0.07 | 0.00 | 46 | 1022.2 |
| 20260831161528 | 73 | 81 | 2.0 | 6.0 | 0.00 | 0.07 | 0.00 | 48 | 1022.1 |
| 20260831161015 | 73 | 16 | 2.0 | 5.0 | 0.00 | 0.07 | 0.00 | 47 | 1022.0 |
| 20260831160514 | 73 | 37 | 1.0 | 3.0 | 0.00 | 0.07 | 0.00 | 49 | 1021.9 |
| 20260831160033 | 74 | 69 | 2.0 | 2.0 | 0.00 | 0.07 | 0.00 | 47 | 1021.9 |
| 20260831155506 | 73 | 46 | 0.0 | 2.0 | 0.00 | 0.07 | 0.00 | 43 | 1021.8 |
| 20260831155008 | 73 | 46 | 0.0 | 2.0 | 0.00 | 0.07 | 0.00 | 40 | 1021.9 |
| 20260831154526 | 73 | 46 | 1.0 | 2.0 | 0.00 | 0.07 | 0.00 | 46 | 1021.8 |
| 20260831154004 | 73 | 46 | 0.0 | 2.0 | 0.00 | 0.07 | 0.00 | 45 | 1021.8 |
| 20260831153503 | 72 | 46 | 1.0 | 2.0 | 0.00 | 0.07 | 0.00 | 48 | 1021.7 |
| 20260831153006 | 72 | 18 | 0.0 | 1.0 | 0.00 | 0.07 | 0.00 | 51 | 1021.7 |
| 20260831152503 | 71 | 28 | 0.0 | 1.0 | 0.00 | 0.07 | 0.00 | 52 | 1021.7 |
| 20260831152004 | 71 | 38 | 1.0 | 3.0 | 0.00 | 0.07 | 0.00 | 52 | 1021.8 |
| 20260831151504 | 70 | 57 | 0.0 | 3.0 | 0.00 | 0.07 | 0.00 | 58 | 1021.8 |
| 20260831151004 | 70 | 39 | 1.0 | 3.0 | 0.00 | 0.07 | 0.00 | 58 | 1021.8 |
| 20260831150502 | 70 | 41 | 0.0 | 3.0 | 0.00 | 0.07 | 0.00 | 58 | 1021.8 |
| 20260831150002 | 69 | 41 | 0.0 | 3.0 | 0.00 | 0.07 | 0.00 | 59 | 1021.8 |
| 20260831145503 | 69 | 38 | 1.0 | 3.0 | 0.00 | 0.07 | 0.00 | 55 | 1021.8 |
| 20260831145005 | 68 | 167 | 0.0 | 3.0 | 0.00 | 0.07 | 0.00 | 53 | 1021.8 |
| 20260831144505 | 68 | 195 | 0.0 | 3.0 | 0.00 | 0.07 | 0.00 | 57 | 1021.9 |
| 20260831144004 | 67 | 174 | 0.0 | 3.0 | 0.00 | 0.07 | 0.00 | 57 | 1021.9 |
| 20260831143504 | 66 | 188 | 0.0 | 2.0 | 0.00 | 0.07 | 0.00 | 64 | 1021.9 |
| 20260831143004 | 65 | 179 | 0.0 | 2.0 | 0.00 | 0.07 | 0.00 | 64 | 1021.8 |
| 20260831142504 | 64 | 177 | 0.0 | 2.0 | 0.00 | 0.07 | 0.00 | 65 | 1021.7 |
| 20260831142002 | 64 | 150 | 0.0 | 2.0 | 0.00 | 0.07 | 0.00 | 66 | 1021.7 |
| 20260831141502 | 64 | 90 | 0.0 | 2.0 | 0.00 | 0.07 | 0.00 | 69 | 1021.7 |
| 20260831141003 | 63 | 67 | 0.0 | 2.0 | 0.00 | 0.07 | 0.00 | 70 | 1021.7 |
| 20260831140504 | 63 | 67 | 0.0 | 2.0 | 0.00 | 0.07 | 0.00 | 70 | 1021.7 |
| 20260831140006 | 62 | 187 | 0.0 | 2.0 | 0.00 | 0.07 | 0.00 | 69 | 1021.6 |
| 20260831135503 | 62 | 201 | 0.0 | 2.0 | 0.00 | 0.07 | 0.00 | 69 | 1021.5 |
| 20260831135003 | 62 | 190 | 0.0 | 2.0 | 0.00 | 0.07 | 0.00 | 69 | 1021.4 |
| 20260831134505 | 62 | 176 | 0.0 | 2.0 | 0.00 | 0.07 | 0.00 | 68 | 1021.3 |
| 20260831134002 | 62 | 176 | 0.0 | 2.0 | 0.00 | 0.07 | 0.00 | 68 | 1021.3 |
| 20260831133504 | 61 | 176 | 0.0 | 0.0 | 0.00 | 0.07 | 0.00 | 67 | 1021.2 |
| 20260831133006 | 61 | 176 | 0.0 | 0.0 | 0.00 | 0.07 | 0.00 | 66 | 1021.1 |
| 20260831132504 | 61 | 176 | 0.0 | 2.0 | 0.00 | 0.07 | 0.00 | 66 | 1021.1 |
| 20260831132004 | 61 | 176 | 0.0 | 2.0 | 0.00 | 0.07 | 0.00 | 65 | 1021.0 |
| 20260831131510 | 61 | 176 | 0.0 | 2.0 | 0.00 | 0.07 | 0.00 | 65 | 1021.1 |
| 20260831131009 | 61 | 176 | 0.0 | 2.0 | 0.00 | 0.07 | 0.00 | 64 | 1020.9 |
| 20260831130505 | 61 | 176 | 0.0 | 2.0 | 0.00 | 0.07 | 0.00 | 63 | 1020.9 |
| 20260831130003 | 62 | 176 | 0.0 | 2.0 | 0.00 | 0.07 | 0.00 | 63 | 1020.8 |
| 20260831125503 | 62 | 111 | 0.0 | 2.0 | 0.00 | 0.07 | 0.00 | 63 | 1020.8 |
| 20260831125004 | 62 | 76 | 0.0 | 2.0 | 0.00 | 0.07 | 0.00 | 61 | 1020.6 |
| 20260831124509 | 62 | 76 | 0.0 | 2.0 | 0.00 | 0.07 | 0.00 | 62 | 1020.4 |
| 20260831124005 | 62 | 76 | 0.0 | 2.0 | 0.00 | 0.07 | 0.00 | 60 | 1020.4 |
| 20260831123505 | 63 | 76 | 0.0 | 2.0 | 0.00 | 0.07 | 0.00 | 57 | 1020.5 |
| 20260831123008 | 63 | 76 | 0.0 | 1.0 | 0.00 | 0.07 | 0.00 | 57 | 1020.5 |
| 20260831122504 | 63 | 76 | 0.0 | 2.0 | 0.00 | 0.07 | 0.00 | 57 | 1020.4 |
| 20260831122004 | 64 | 76 | 0.0 | 2.0 | 0.00 | 0.07 | 0.00 | 56 | 1020.4 |
| 20260831121505 | 64 | 76 | 0.0 | 2.0 | 0.00 | 0.07 | 0.00 | 56 | 1020.2 |
| 20260831121005 | 64 | 9 | 0.0 | 2.0 | 0.00 | 0.07 | 0.00 | 56 | 1020.1 |
| 20260831120507 | 64 | 257 | 0.0 | 3.0 | 0.00 | 0.07 | 0.00 | 54 | 1020.1 |
| 20260831120011 | 64 | 283 | 0.0 | 3.0 | 0.00 | 0.07 | 0.00 | 54 | 1020.1 |
| 20260831115506 | 64 | 239 | 0.0 | 2.0 | 0.00 | 0.07 | 0.00 | 53 | 1020.1 |
| 20260831115004 | 64 | 225 | 0.0 | 2.0 | 0.00 | 0.07 | 0.00 | 52 | 1019.9 |
| 20260831114510 | 64 | 239 | 0.0 | 4.0 | 0.00 | 0.07 | 0.00 | 54 | 1020.0 |
| 20260831114004 | 63 | 220 | 1.0 | 4.0 | 0.00 | 0.07 | 0.00 | 54 | 1020.0 |
| 20260831113506 | 62 | 243 | 1.0 | 3.0 | 0.00 | 0.07 | 0.00 | 59 | 1020.0 |
| 20260831113009 | 62 | 176 | 0.0 | 2.0 | 0.00 | 0.07 | 0.00 | 60 | 1020.0 |
| 20260831112503 | 62 | 312 | 0.0 | 2.0 | 0.00 | 0.07 | 0.00 | 60 | 1019.9 |
| 20260831112005 | 62 | 312 | 0.0 | 2.0 | 0.00 | 0.07 | 0.00 | 60 | 1019.9 |
| 20260831111508 | 62 | 201 | 0.0 | 2.0 | 0.00 | 0.07 | 0.00 | 60 | 1019.8 |
| 20260831111007 | 62 | 236 | 0.0 | 2.0 | 0.00 | 0.07 | 0.00 | 61 | 1019.9 |
| 20260831110508 | 62 | 232 | 1.0 | 2.0 | 0.00 | 0.07 | 0.00 | 59 | 1019.9 |
| 20260831110003 | 62 | 146 | 0.0 | 2.0 | 0.00 | 0.07 | 0.00 | 59 | 1019.8 |
| 20260831105506 | 62 | 153 | 0.0 | 2.0 | 0.00 | 0.07 | 0.00 | 59 | 1019.9 |
| 20260831105007 | 62 | 153 | 0.0 | 2.0 | 0.00 | 0.07 | 0.00 | 58 | 1019.8 |
| 20260831104526 | 62 | 154 | 1.0 | 2.0 | 0.00 | 0.07 | 0.00 | 56 | 1019.7 |
| 20260831104007 | 61 | 205 | 0.0 | 2.0 | 0.00 | 0.07 | 0.00 | 61 | 1019.7 |
| 20260831103505 | 61 | 205 | 0.0 | 2.0 | 0.00 | 0.07 | 0.00 | 62 | 1019.7 |
| 20260831103008 | 61 | 104 | 0.0 | 2.0 | 0.00 | 0.07 | 0.00 | 63 | 1019.6 |
| 20260831102508 | 61 | 145 | 0.0 | 2.0 | 0.00 | 0.07 | 0.00 | 63 | 1019.7 |
| 20260831102005 | 61 | 108 | 0.0 | 2.0 | 0.00 | 0.07 | 0.00 | 65 | 1019.6 |
| 20260831101507 | 61 | 103 | 0.0 | 3.0 | 0.00 | 0.07 | 0.00 | 65 | 1019.6 |
| 20260831101005 | 61 | 117 | 0.0 | 3.0 | 0.00 | 0.07 | 0.00 | 66 | 1019.6 |
| 20260831100509 | 61 | 172 | 0.0 | 2.0 | 0.00 | 0.07 | 0.00 | 66 | 1019.6 |
| 20260831100009 | 61 | 172 | 0.0 | 2.0 | 0.00 | 0.07 | 0.00 | 65 | 1019.4 |
| 20260831095512 | 61 | 169 | 0.0 | 2.0 | 0.00 | 0.07 | 0.00 | 64 | 1019.3 |
| 20260831095007 | 62 | 168 | 0.0 | 2.0 | 0.00 | 0.07 | 0.00 | 65 | 1019.2 |
| 20260831094514 | 62 | 190 | 0.0 | 2.0 | 0.00 | 0.07 | 0.00 | 66 | 1019.2 |
| 20260831094004 | 62 | 199 | 0.0 | 2.0 | 0.00 | 0.07 | 0.00 | 66 | 1019.2 |
| 20260831093504 | 62 | 202 | 0.0 | 2.0 | 0.00 | 0.07 | 0.00 | 65 | 1019.1 |
| 20260831090004 | 63 | 215 | 0.0 | 2.0 | 0.00 | 0.07 | 0.00 | 62 | 1019.1 |
| 20260831085503 | 63 | 219 | 0.0 | 1.0 | 0.00 | 0.07 | 0.00 | 61 | 1019.1 |
| 20260831085006 | 64 | 187 | 0.0 | 2.0 | 0.00 | 0.07 | 0.00 | 61 | 1019.2 |
| 20260831084515 | 64 | 186 | 0.0 | 2.0 | 0.00 | 0.07 | 0.00 | 60 | 1019.2 |
| 20260831084007 | 64 | 192 | 0.0 | 2.0 | 0.00 | 0.07 | 0.00 | 59 | 1019.2 |
| 20260831083508 | 64 | 192 | 0.0 | 2.0 | 0.00 | 0.07 | 0.00 | 56 | 1019.3 |
| 20260831083014 | 65 | 188 | 0.0 | 2.0 | 0.00 | 0.07 | 0.00 | 56 | 1019.3 |
| 20260831082506 | 65 | 188 | 0.0 | 2.0 | 0.00 | 0.07 | 0.00 | 55 | 1019.4 |
| 20260831082003 | 66 | 188 | 0.0 | 2.0 | 0.00 | 0.07 | 0.00 | 54 | 1019.3 |
| 20260831081508 | 66 | 188 | 0.0 | 2.0 | 0.00 | 0.07 | 0.00 | 53 | 1019.4 |
| 20260831081010 | 67 | 188 | 0.0 | 2.0 | 0.00 | 0.07 | 0.00 | 51 | 1019.5 |
| 20260831080507 | 67 | 188 | 0.0 | 2.0 | 0.00 | 0.07 | 0.00 | 50 | 1019.5 |
| 20260831080018 | 68 | 185 | 0.0 | 2.0 | 0.00 | 0.07 | 0.00 | 48 | 1019.6 |
| 20260831075513 | 68 | 185 | 0.0 | 2.0 | 0.00 | 0.07 | 0.00 | 49 | 1019.6 |
| 20260831075007 | 68 | 185 | 0.0 | 2.0 | 0.00 | 0.07 | 0.00 | 48 | 1019.5 |
| 20260831074514 | 68 | 185 | 0.0 | 2.0 | 0.00 | 0.07 | 0.00 | 46 | 1019.6 |
| 20260831074006 | 68 | 164 | 0.0 | 1.0 | 0.00 | 0.07 | 0.00 | 46 | 1019.7 |
| 20260831073504 | 68 | 145 | 1.0 | 2.0 | 0.00 | 0.07 | 0.00 | 47 | 1019.8 |
| 20260831073011 | 69 | 155 | 1.0 | 2.0 | 0.00 | 0.07 | 0.00 | 46 | 1019.9 |
| 20260831072510 | 69 | 114 | 0.0 | 3.0 | 0.00 | 0.07 | 0.00 | 44 | 1019.9 |
| 20260831072008 | 69 | 186 | 0.0 | 3.0 | 0.00 | 0.07 | 0.00 | 44 | 1019.9 |
| 20260831071519 | 69 | 206 | 1.0 | 4.0 | 0.00 | 0.07 | 0.00 | 44 | 1019.9 |
| 20260831071005 | 69 | 275 | 1.0 | 4.0 | 0.00 | 0.07 | 0.00 | 44 | 1019.9 |
| 20260831070504 | 69 | 277 | 0.0 | 2.0 | 0.00 | 0.07 | 0.00 | 47 | 1019.9 |
| 20260831070007 | 69 | 285 | 0.0 | 2.0 | 0.00 | 0.07 | 0.00 | 46 | 1020.0 |
| 20260831065506 | 68 | 320 | 0.0 | 2.0 | 0.00 | 0.07 | 0.00 | 46 | 1020.1 |
| 20260831065008 | 68 | 302 | 0.0 | 3.0 | 0.00 | 0.07 | 0.00 | 49 | 1020.1 |
| 20260831064522 | 68 | 5 | 0.0 | 3.0 | 0.00 | 0.07 | 0.00 | 49 | 1019.9 |
| 20260831064010 | 68 | 342 | 1.0 | 2.0 | 0.00 | 0.07 | 0.00 | 50 | 1020.0 |
| 20260831063508 | 68 | 79 | 0.0 | 3.0 | 0.00 | 0.07 | 0.00 | 49 | 1020.1 |
| 20260831063004 | 68 | 57 | 1.0 | 3.0 | 0.00 | 0.07 | 0.00 | 48 | 1020.0 |
| 20260831062504 | 69 | 46 | 1.0 | 3.0 | 0.00 | 0.07 | 0.00 | 46 | 1020.0 |
| 20260831062005 | 69 | 36 | 0.0 | 2.0 | 0.00 | 0.07 | 0.00 | 47 | 1020.1 |
| 20260831061511 | 69 | 144 | 0.0 | 2.0 | 0.00 | 0.07 | 0.00 | 46 | 1020.1 |
| 20260831061014 | 70 | 105 | 0.0 | 2.0 | 0.00 | 0.07 | 0.00 | 45 | 1020.1 |
| 20260831060512 | 70 | 194 | 0.0 | 3.0 | 0.00 | 0.07 | 0.00 | 44 | 1020.1 |
| 20260831060021 | 70 | 298 | 1.0 | 5.0 | 0.00 | 0.07 | 0.00 | 44 | 1020.1 |
| 20260831055511 | 70 | 161 | 2.0 | 5.0 | 0.00 | 0.07 | 0.07 | 43 | 1020.1 |
| 20260831055003 | 70 | 334 | 1.0 | 10.0 | 0.00 | 0.07 | 0.07 | 43 | 1020.2 |
| 20260831054506 | 70 | 258 | 2.0 | 10.0 | 0.00 | 0.07 | 0.07 | 43 | 1020.2 |
| 20260831054004 | 70 | 232 | 3.0 | 12.0 | 0.00 | 0.07 | 0.07 | 43 | 1020.3 |
| 20260831053508 | 71 | 169 | 4.0 | 12.0 | 0.00 | 0.07 | 0.07 | 43 | 1020.3 |
| 20260831053014 | 71 | 154 | 3.0 | 10.0 | 0.00 | 0.07 | 0.07 | 42 | 1020.2 |
| 20260831052513 | 71 | 167 | 3.0 | 14.0 | 0.00 | 0.07 | 0.07 | 42 | 1020.4 |
| 20260831052011 | 71 | 205 | 2.0 | 14.0 | 0.00 | 0.07 | 0.07 | 42 | 1020.7 |
| 20260831051525 | 72 | 282 | 2.0 | 12.0 | 0.00 | 0.07 | 0.07 | 41 | 1021.0 |
| 20260831051003 | 72 | 246 | 3.0 | 12.0 | 0.00 | 0.07 | 0.07 | 41 | 1021.3 |
| 20260831050503 | 73 | 198 | 3.0 | 13.0 | 0.00 | 0.07 | 0.07 | 41 | 1021.3 |
| 20260831050013 | 73 | 350 | 5.0 | 14.0 | 0.00 | 0.07 | 0.07 | 40 | 1021.6 |
| 20260831045507 | 73 | 187 | 5.0 | 14.0 | 0.00 | 0.07 | 0.07 | 40 | 1021.7 |
| 20260831045008 | 74 | 192 | 6.0 | 18.0 | 0.00 | 0.07 | 0.07 | 41 | 1021.5 |
| 20260831044523 | 74 | 294 | 6.0 | 18.0 | 0.00 | 0.07 | 0.07 | 40 | 1021.6 |
| 20260831044011 | 74 | 194 | 5.0 | 18.0 | 0.00 | 0.07 | 0.07 | 40 | 1021.6 |
| 20260831043510 | 73 | 267 | 5.0 | 18.0 | 0.00 | 0.07 | 0.07 | 41 | 1021.6 |
| 20260831043004 | 71 | 346 | 5.0 | 17.0 | 0.00 | 0.07 | 0.07 | 43 | 1021.4 |
| 20260831042503 | 68 | 173 | 3.0 | 13.0 | 0.00 | 0.07 | 0.07 | 49 | 1021.3 |
| 20260831042007 | 66 | 248 | 3.0 | 8.0 | 0.00 | 0.07 | 0.07 | 56 | 1021.3 |
| 20260831041513 | 65 | 203 | 0.0 | 2.0 | 0.00 | 0.07 | 0.07 | 62 | 1021.1 |
| 20260831041012 | 65 | 207 | 0.0 | 2.0 | 0.00 | 0.07 | 0.07 | 63 | 1021.0 |
| 20260831040512 | 65 | 207 | 0.0 | 2.0 | 0.00 | 0.07 | 0.07 | 63 | 1020.7 |
| 20260831040021 | 66 | 207 | 0.0 | 2.0 | 0.00 | 0.07 | 0.07 | 62 | 1020.5 |
| 20260831035511 | 66 | 207 | 0.0 | 2.0 | 0.00 | 0.07 | 0.07 | 62 | 1020.4 |
| 20260831035003 | 66 | 207 | 0.0 | 2.0 | 0.00 | 0.07 | 0.07 | 1020.3 | |
| 20260831034507 | 66 | 207 | 0.0 | 2.0 | 0.00 | 0.07 | 0.07 | 1020.3 | |
| 20260831034007 | 66 | 220 | 0.0 | 2.0 | 0.00 | 0.07 | 0.07 | 1020.2 | |
| 20260831033511 | 66 | 98 | 0.0 | 2.0 | 0.00 | 0.07 | 0.07 | 1020.2 | |
| 20260831033020 | 67 | 98 | 0.0 | 2.0 | 0.00 | 0.07 | 0.07 | 61 | 1020.3 |
| 20260831032510 | 67 | 115 | 0.0 | 2.0 | 0.00 | 0.07 | 0.07 | 61 | 1020.3 |
| 20260831032012 | 67 | 115 | 0.0 | 2.0 | 0.00 | 0.07 | 0.07 | 59 | 1020.3 |
| 20260831031530 | 67 | 115 | 0.0 | 2.0 | 0.00 | 0.07 | 0.07 | 60 | 1020.2 |
| 20260831031003 | 67 | 119 | 0.0 | 2.0 | 0.00 | 0.07 | 0.07 | 1020.2 | |
| 20260831030506 | 67 | 139 | 0.0 | 2.0 | 0.00 | 0.07 | 0.07 | 1020.1 | |
| 20260831030010 | 67 | 175 | 0.0 | 2.0 | 0.00 | 0.07 | 0.07 | 1020.1 | |
| 20260831025510 | 67 | 111 | 0.0 | 2.0 | 0.00 | 0.07 | 0.07 | 1020.0 | |
| 20260831025011 | 67 | 117 | 0.0 | 2.0 | 0.00 | 0.07 | 0.07 | 1019.9 | |
| 20260831024526 | 67 | 107 | 1.0 | 2.0 | 0.00 | 0.07 | 0.07 | 1019.9 | |
| 20260831024014 | 67 | 103 | 1.0 | 2.0 | 0.00 | 0.07 | 0.07 | 59 | 1019.8 |
| 20260831023516 | 68 | 49 | 0.0 | 2.0 | 0.00 | 0.07 | 0.07 | 59 | 1019.8 |
| 20260831023005 | 68 | 92 | 0.0 | 2.0 | 0.00 | 0.07 | 0.07 | 59 | 1019.8 |
| 20260831022506 | 68 | 51 | 0.0 | 2.0 | 0.00 | 0.07 | 0.07 | 58 | 1019.8 |
| 20260831022006 | 68 | 104 | 0.0 | 2.0 | 0.00 | 0.07 | 0.07 | 57 | 1019.7 |
| 20260831021516 | 69 | 112 | 0.0 | 2.0 | 0.00 | 0.07 | 0.07 | 57 | 1019.5 |
| 20260831021012 | 69 | 132 | 0.0 | 6.0 | 0.00 | 0.07 | 0.07 | 57 | 1019.4 |
| 20260831020514 | 69 | 352 | 0.0 | 6.0 | 0.00 | 0.07 | 0.07 | 57 | 1019.4 |
| 20260831020027 | 69 | 119 | 0.0 | 2.0 | 0.00 | 0.07 | 0.07 | 57 | 1019.4 |
| 20260831015517 | 69 | 94 | 0.0 | 2.0 | 0.00 | 0.07 | 0.07 | 55 | 1019.4 |
| 20260831015005 | 70 | 33 | 0.0 | 2.0 | 0.00 | 0.07 | 0.07 | 55 | 1019.4 |
| 20260831014510 | 70 | 33 | 0.0 | 2.0 | 0.00 | 0.07 | 0.07 | 54 | 1019.4 |
| 20260831014010 | 71 | 69 | 0.0 | 2.0 | 0.00 | 0.07 | 0.07 | 53 | 1019.4 |
| 20260831013512 | 71 | 109 | 0.0 | 2.0 | 0.00 | 0.07 | 0.07 | 51 | 1019.4 |
| 20260831013038 | 71 | 109 | 0.0 | 2.0 | 0.00 | 0.07 | 0.07 | 50 | 1019.3 |
| 20260831012513 | 72 | 167 | 0.0 | 2.0 | 0.00 | 0.07 | 0.07 | 49 | 1019.3 |
| 20260831012012 | 72 | 231 | 1.0 | 2.0 | 0.00 | 0.07 | 0.07 | 49 | 1019.3 |
| 20260831011526 | 73 | 34 | 0.0 | 2.0 | 0.00 | 0.07 | 0.07 | 47 | 1019.1 |
| 20260831011003 | 73 | 150 | 0.0 | 2.0 | 0.00 | 0.07 | 0.07 | 46 | 1019.2 |
| 20260831010508 | 74 | 213 | 1.0 | 2.0 | 0.00 | 0.07 | 0.07 | 44 | 1019.2 |
| 20260831010017 | 75 | 60 | 0.0 | 8.0 | 0.00 | 0.07 | 0.07 | 43 | 1019.0 |
| 20260831005513 | 75 | 34 | 2.0 | 8.0 | 0.00 | 0.07 | 0.07 | 42 | 1019.1 |
| 20260831005015 | 76 | 350 | 1.0 | 5.0 | 0.00 | 0.07 | 0.07 | 40 | 1019.0 |
| 20260831004527 | 76 | 232 | 0.0 | 5.0 | 0.00 | 0.07 | 0.07 | 40 | 1019.1 |
| 20260831004016 | 76 | 213 | 0.0 | 10.0 | 0.00 | 0.07 | 0.07 | 41 | 1019.1 |
| 20260831003517 | 77 | 165 | 2.0 | 10.0 | 0.00 | 0.07 | 0.07 | 37 | 1019.2 |
| 20260831003027 | 77 | 179 | 2.0 | 5.0 | 0.00 | 0.07 | 0.07 | 39 | 1019.2 |
| 20260831002514 | 78 | 144 | 2.0 | 8.0 | 0.00 | 0.07 | 0.07 | 38 | 1019.3 |
| 20260831002014 | 79 | 161 | 1.0 | 8.0 | 0.00 | 0.07 | 0.07 | 35 | 1019.3 |
| 20260831001525 | 79 | 167 | 1.0 | 5.0 | 0.00 | 0.07 | 0.07 | 35 | 1019.2 |
| 20260831001016 | 79 | 262 | 1.0 | 7.0 | 0.00 | 0.07 | 0.07 | 35 | 1019.3 |
| 20260831000516 | 79 | 263 | 2.0 | 7.0 | 0.00 | 0.07 | 0.07 | 35 | 1019.4 |
| 20260831000026 | 79 | 57 | 0.0 | 5.0 | 0.00 | 0.07 | 0.07 | 34 | 1019.2 |
| 20260830235515 | 79 | 211 | 1.0 | 12.0 | 0.00 | 0.07 | 0.07 | 35 | 1019.1 |
| 20260830235014 | 79 | 221 | 2.0 | 12.0 | 0.00 | 0.07 | 0.07 | 35 | 1018.9 |
| 20260830234528 | 80 | 204 | 6.0 | 14.0 | 0.00 | 0.07 | 0.07 | 34 | 1018.8 |
| 20260830234010 | 80 | 194 | 5.0 | 14.0 | 0.00 | 0.07 | 0.07 | 34 | 1019.0 |
| 20260830233513 | 81 | 255 | 4.0 | 13.0 | 0.00 | 0.07 | 0.07 | 33 | 1019.0 |
| 20260830233024 | 80 | 184 | 4.0 | 13.0 | 0.00 | 0.07 | 0.07 | 35 | 1018.9 |
| 20260830232516 | 80 | 188 | 4.0 | 14.0 | 0.00 | 0.07 | 0.07 | 34 | 1018.9 |